When you browse on this site, cookies collect data to enhance your experience and personalize the content and advertising you see.
Visit our Privacy Policy to learn more. By continuing to use the site, you agree to this use of cookies and data.
  • Em Portugal
  • Lista de países
  • Para 7 dias
  • Temperatura da água
  • Mapa do tempo
  • Widgets de tempo
  • user-avatar
    Iniciar Sessão

    Previsão horária em Priazovskoe

    Hoje, 26 Maio, Terça-feira

    Tempo Temperatura Precipitação Vento Pressão Humidade
    00:00 +14°C° 2.1 mm 2 m/s 764 mmHg 88%
    01:00 +13°C° 2.1 mm 3 m/s 764 mmHg 91%
    02:00 +13°C° 2.1 mm 4 m/s 763 mmHg 94%
    03:00 +13°C° 1.1 mm 4 m/s 763 mmHg 94%
    04:00 +13°C° 1.1 mm 4 m/s 763 mmHg 93%
    05:00 +13°C° 1.1 mm 4 m/s 763 mmHg 93%
    06:00 +13°C° 0.7 mm 4 m/s 763 mmHg 91%
    07:00 +14°C° 0.7 mm 4 m/s 763 mmHg 89%
    08:00 +14°C° 0.7 mm 4 m/s 764 mmHg 87%
    09:00 +16°C° 0.5 mm 3 m/s 763 mmHg 81%
    10:00 +17°C° 0.5 mm 3 m/s 763 mmHg 76%
    11:00 +18°C° 0.5 mm 3 m/s 763 mmHg 71%
    12:00 +19°C° 0.3 mm 4 m/s 763 mmHg 67%
    13:00 +19°C° 0.3 mm 4 m/s 763 mmHg 63%
    14:00 +19°C° 0.3 mm 5 m/s 763 mmHg 60%
    15:00 +19°C° 0 mm 5 m/s 763 mmHg 61%
    16:00 +19°C° 0 mm 5 m/s 763 mmHg 62%
    17:00 +19°C° 0 mm 5 m/s 763 mmHg 62%
    18:00 +17°C° 0 mm 5 m/s 763 mmHg 68%
    19:00 +17°C° 0 mm 4 m/s 763 mmHg 74%
    20:00 +15°C° 0 mm 4 m/s 763 mmHg 80%
    21:00 +15°C° 0 mm 4 m/s 763 mmHg 80%
    22:00 +15°C° 0 mm 4 m/s 763 mmHg 81%
    23:00 +14°C° 0 mm 4 m/s 763 mmHg 81%

    Amanhã, 27 Maio, Quarta-feira

    Tempo Temperatura Precipitação Vento Pressão Humidade
    00:00 +14°C° 0 mm 3 m/s 763 mmHg 82%
    01:00 +13°C° 0 mm 3 m/s 763 mmHg 84%
    02:00 +13°C° 0 mm 3 m/s 763 mmHg 85%
    03:00 +13°C° 0 mm 3 m/s 763 mmHg 86%
    04:00 +14°C° 0 mm 2 m/s 763 mmHg 86%
    05:00 +14°C° 0 mm 2 m/s 763 mmHg 86%
    06:00 +15°C° 0 mm 2 m/s 764 mmHg 79%
    07:00 +17°C° 0 mm 2 m/s 764 mmHg 73%
    08:00 +19°C° 0 mm 1 m/s 764 mmHg 66%
    09:00 +19°C° 0 mm 2 m/s 764 mmHg 63%
    10:00 +19°C° 0 mm 2 m/s 764 mmHg 60%
    11:00 +20°C° 0 mm 2 m/s 764 mmHg 58%
    12:00 +20°C° 0 mm 3 m/s 764 mmHg 58%
    13:00 +20°C° 0 mm 3 m/s 763 mmHg 58%
    14:00 +20°C° 0 mm 3 m/s 763 mmHg 58%
    15:00 +20°C° 0 mm 3 m/s 763 mmHg 60%
    16:00 +20°C° 0 mm 3 m/s 762 mmHg 63%
    17:00 +19°C° 0 mm 4 m/s 762 mmHg 65%
    18:00 +18°C° 0 mm 3 m/s 762 mmHg 69%
    19:00 +18°C° 0 mm 3 m/s 762 mmHg 72%
    20:00 +17°C° 0 mm 3 m/s 762 mmHg 75%
    21:00 +16°C° 0 mm 3 m/s 762 mmHg 75%
    22:00 +15°C° 0 mm 4 m/s 761 mmHg 75%
    23:00 +15°C° 0 mm 4 m/s 761 mmHg 75%

    Depois de amanhã, 28 Maio, Quinta-feira

    Tempo Temperatura Precipitação Vento Pressão Humidade
    00:00 +15°C° 0.2 mm 4 m/s 761 mmHg 78%
    01:00 +15°C° 0.2 mm 5 m/s 760 mmHg 80%
    02:00 +14°C° 0.2 mm 5 m/s 760 mmHg 83%
    03:00 +14°C° 0.4 mm 5 m/s 759 mmHg 86%
    04:00 +14°C° 0.4 mm 5 m/s 759 mmHg 88%
    05:00 +14°C° 0.4 mm 5 m/s 759 mmHg 91%
    06:00 +15°C° 0.6 mm 5 m/s 759 mmHg 91%
    07:00 +17°C° 0.6 mm 4 m/s 758 mmHg 91%
    08:00 +17°C° 0.6 mm 4 m/s 758 mmHg 91%
    09:00 +18°C° 0.4 mm 3 m/s 758 mmHg 88%
    10:00 +19°C° 0.4 mm 3 m/s 758 mmHg 85%
    11:00 +20°C° 0.4 mm 3 m/s 758 mmHg 82%
    12:00 +20°C° 0.2 mm 2 m/s 758 mmHg 81%
    13:00 +20°C° 0.2 mm 2 m/s 757 mmHg 79%
    14:00 +22°C° 0.2 mm 1 m/s 757 mmHg 77%
    15:00 +21°C° 0.1 mm 2 m/s 757 mmHg 75%
    16:00 +21°C° 0.1 mm 3 m/s 757 mmHg 73%
    17:00 +21°C° 0.1 mm 4 m/s 757 mmHg 71%
    18:00 +20°C° 0 mm 4 m/s 757 mmHg 75%
    19:00 +19°C° 0 mm 4 m/s 757 mmHg 78%
    20:00 +18°C° 0 mm 4 m/s 757 mmHg 82%
    21:00 +17°C° 0 mm 4 m/s 757 mmHg 83%
    22:00 +17°C° 0 mm 4 m/s 757 mmHg 84%
    23:00 +15°C° 0 mm 4 m/s 757 mmHg 85%

    29 Maio, Sexta-feira

    Tempo Temperatura Precipitação Vento Pressão Humidade
    00:00 +15°C° 0 mm 4 m/s 757 mmHg 86%
    01:00 +15°C° 0 mm 4 m/s 757 mmHg 87%
    02:00 +14°C° 0 mm 4 m/s 757 mmHg 87%
    03:00 +14°C° 0 mm 4 m/s 757 mmHg 87%
    04:00 +14°C° 0 mm 3 m/s 757 mmHg 87%
    05:00 +14°C° 0 mm 3 m/s 757 mmHg 86%
    06:00 +16°C° 0 mm 3 m/s 757 mmHg 82%
    07:00 +18°C° 0 mm 3 m/s 757 mmHg 77%
    08:00 +19°C° 0 mm 3 m/s 757 mmHg 73%
    09:00 +19°C° 0 mm 3 m/s 757 mmHg 69%
    10:00 +20°C° 0 mm 3 m/s 757 mmHg 66%
    11:00 +21°C° 0 mm 3 m/s 757 mmHg 63%
    12:00 +21°C° 0 mm 3 m/s 757 mmHg 63%
    13:00 +21°C° 0 mm 3 m/s 756 mmHg 64%
    14:00 +21°C° 0 mm 3 m/s 756 mmHg 65%
    15:00 +21°C° 0 mm 3 m/s 756 mmHg 66%
    16:00 +21°C° 0 mm 3 m/s 756 mmHg 68%
    17:00 +21°C° 0 mm 3 m/s 756 mmHg 69%
    18:00 +20°C° 0 mm 3 m/s 756 mmHg 73%
    19:00 +19°C° 0 mm 4 m/s 756 mmHg 77%
    20:00 +18°C° 0 mm 4 m/s 756 mmHg 81%
    21:00 +18°C° 0.1 mm 4 m/s 756 mmHg 83%
    22:00 +18°C° 0.1 mm 4 m/s 756 mmHg 84%
    23:00 +18°C° 0.1 mm 4 m/s 755 mmHg 85%

    30 Maio, Sábado

    Tempo Temperatura Precipitação Vento Pressão Humidade
    00:00 +17°C° 0.3 mm 4 m/s 755 mmHg 87%
    01:00 +16°C° 0.3 mm 5 m/s 755 mmHg 89%
    02:00 +15°C° 0.3 mm 5 m/s 755 mmHg 91%
    03:00 +15°C° 0.9 mm 5 m/s 755 mmHg 91%
    04:00 +15°C° 0.9 mm 4 m/s 755 mmHg 92%
    05:00 +15°C° 0.9 mm 4 m/s 755 mmHg 92%
    06:00 +15°C° 1.3 mm 5 m/s 755 mmHg 90%
    07:00 +16°C° 1.3 mm 7 m/s 755 mmHg 88%
    08:00 +16°C° 1.3 mm 9 m/s 755 mmHg 86%
    09:00 +17°C° 1.8 mm 8 m/s 755 mmHg 83%
    10:00 +17°C° 1.8 mm 7 m/s 756 mmHg 81%
    11:00 +17°C° 1.8 mm 7 m/s 756 mmHg 78%
    12:00 +18°C° 0.4 mm 7 m/s 756 mmHg 75%
    13:00 +20°C° 0.4 mm 7 m/s 757 mmHg 72%
    14:00 +21°C° 0.4 mm 7 m/s 757 mmHg 69%
    15:00 +21°C° 0.5 mm 8 m/s 757 mmHg 69%
    16:00 +21°C° 0.5 mm 9 m/s 758 mmHg 70%
    17:00 +21°C° 0.5 mm 9 m/s 758 mmHg 70%
    18:00 +18°C° 0 mm 9 m/s 759 mmHg 74%
    19:00 +17°C° 0 mm 9 m/s 759 mmHg 77%
    20:00 +16°C° 0 mm 9 m/s 759 mmHg 80%
    21:00 +16°C° 0 mm 9 m/s 760 mmHg 81%
    22:00 +15°C° 0 mm 9 m/s 760 mmHg 81%
    23:00 +15°C° 0 mm 9 m/s 760 mmHg 82%

    31 Maio, Domingo

    Tempo Temperatura Precipitação Vento Pressão Humidade
    00:00 +15°C° 0 mm 9 m/s 760 mmHg 82%
    01:00 +15°C° 0 mm 9 m/s 761 mmHg 83%
    02:00 +13°C° 0 mm 8 m/s 761 mmHg 83%
    03:00 +15°C° 0 mm 8 m/s 761 mmHg 84%
    04:00 +15°C° 0 mm 8 m/s 761 mmHg 85%
    05:00 +15°C° 0 mm 8 m/s 761 mmHg 87%
    06:00 +16°C° 0 mm 8 m/s 762 mmHg 82%
    07:00 +17°C° 0 mm 7 m/s 762 mmHg 77%
    08:00 +20°C° 0 mm 7 m/s 762 mmHg 73%
    09:00 +20°C° 0 mm 6 m/s 763 mmHg 68%
    10:00 +21°C° 0 mm 6 m/s 763 mmHg 64%
    11:00 +22°C° 0 mm 5 m/s 763 mmHg 59%
    12:00 +22°C° 0.1 mm 5 m/s 763 mmHg 58%
    13:00 +23°C° 0.1 mm 5 m/s 763 mmHg 57%
    14:00 +23°C° 0.1 mm 5 m/s 763 mmHg 56%
    15:00 +23°C° 0 mm 5 m/s 763 mmHg 58%
    16:00 +22°C° 0 mm 5 m/s 763 mmHg 59%
    17:00 +22°C° 0 mm 4 m/s 763 mmHg 60%
    18:00 +21°C° 0 mm 4 m/s 763 mmHg 66%
    19:00 +19°C° 0 mm 3 m/s 763 mmHg 71%
    20:00 +18°C° 0 mm 3 m/s 763 mmHg 76%
    21:00 +18°C° 0 mm 3 m/s 763 mmHg 77%
    22:00 +17°C° 0 mm 2 m/s 763 mmHg 77%
    23:00 +17°C° 0 mm 2 m/s 763 mmHg 78%
    Mostrar mais